#timestamp,LO_Frequency,Hit,StdDev 
1509048015.3,286047002.9,N
1509048035.1,286047006.1,N
1509048055.9,286047009.2,N
1509048075.7,286047011.8,N
1509048095.6,286047011.5,N
1509048115.4,286047012.9,N
1509048135.2,286047011.2,N
1509048155.1,286047011.3,N
1509048156.0,286047011.3,N
1509048175.8,286047014.0,N
1509048195.6,286047011.1,N
1509048215.5,286047013.7,N
1509048235.3,286047010.9,N
1509048255.1,286047007.8,N
1509048275.9,286047012.9,N
1509048295.7,286047009.6,N
1509048315.5,286047011.1,N
1509048335.4,286047015.0,Y
1509048355.2,286047003.3,P
1509048375.0,286047004.8,N
1509048375.9,286047004.8,N
1509048395.8,286047003.7,N
1509048415.6,286047002.2,N
1509048435.4,286047003.9,N
1509048455.3,286047003.9,N
1509048475.1,286047001.3,N
1509048495.8,286047001.4,N
1509048515.7,286047003.0,N
1509048535.5,286047004.8,N
1509048555.4,286047006.2,Y
1509048575.2,286047002.4,P
1509048595.0,286046997.1,P
1509048595.9,286046997.1,N
1509048615.8,286046997.4,N
1509048635.6,286046996.7,N
1509048655.4,286046997.4,N
1509048675.3,286046993.8,N
1509048695.1,286046993.9,N
1509048696.0,286046993.9,N
1509048715.8,286046987.5,Y
1509048735.7,286046988.2,P
1509048755.5,286046986.0,P
1509048775.3,286046980.8,P
1509048795.2,286046981.1,Y
1509048815.0,286046990.8,P
1509048815.9,286046990.8,P
1509048835.8,286046989.0,P
1509048855.6,286046987.1,Y
1509048875.4,286046997.8,P
1509048895.3,286046993.9,N
1509048915.1,286046994.6,N
1509048935.8,286046995.9,N
1509048955.7,286046993.3,N
1509048975.5,286046993.7,N
1509048995.3,286046994.0,N
1509049015.2,286046996.3,N
1509049035.0,286046994.8,N
1509049035.9,286046994.8,N
1509049055.7,286046994.8,N
1509049075.6,286046991.4,Y
1509049095.4,286046995.7,P
1509049115.3,286046997.4,P
1509049135.1,286046997.7,N
1509049136.0,286046997.7,N
1509049155.8,286046996.1,Y
1509049175.7,286047001.1,P
1509049195.5,286046999.6,N
1509049215.3,286046998.0,N
1509049235.2,286046999.6,N
1509049255.9,286046997.4,N
1509049275.7,286046999.2,N
1509049295.6,286046995.2,Y
1509049315.4,286046997.3,P
1509049335.2,286046994.9,P
1509049355.1,286046995.8,N
1509049356.0,286046995.8,N
1509049375.8,286046997.5,N
1509049395.7,286046997.3,N
1509049415.5,286046995.8,Y
1509049435.3,286047002.8,P
1509049455.2,286047001.0,N
1509049475.9,286046997.7,N
1509049495.7,286046998.9,N
1509049515.6,286047000.7,N
1509049535.4,286047000.8,N
1509049555.2,286046998.2,N
1509049575.1,286047001.2,N
1509049576.0,286047001.2,N
1509049595.8,286046993.5,Y
1509049615.6,286046995.7,P
1509049635.5,286047002.0,N
1509049655.3,286047010.2,P
1509049675.1,286047010.1,N
1509049695.9,286047016.5,N
1509049715.7,286047019.0,N
1509049735.6,286047026.7,Y
1509049755.4,286047019.7,P
1509049775.2,286047023.0,P
1509049795.1,286047022.9,P
1509049796.0,286047022.9,Y
1509049815.8,286047006.8,P
1509049835.6,286047006.2,N
1509049855.5,286047008.2,N
1509049875.3,286047014.0,N
1509049895.1,286047017.0,Y
1509049915.9,286047005.2,P
1509049935.7,286047005.5,N
1509049955.5,286047006.8,N
1509049975.4,286047010.7,Y
1509049995.2,286047003.1,P
1509050015.1,286047003.7,N
1509050016.0,286047003.7,N
1509050035.8,286046999.9,N
1509050055.6,286047002.8,N
1509050075.5,286047004.1,N
1509050095.3,286047005.8,N
1509050115.1,286047000.3,N
1509050135.9,286046998.3,N
1509050155.7,286046998.7,N
1509050175.5,286046995.8,N
1509050195.4,286046994.9,N
1509050215.2,286046997.9,N
1509050235.0,286046995.1,N
1509050235.9,286046995.1,N
1509050255.8,286047000.3,N
1509050275.6,286046998.2,N
1509050295.4,286047000.4,N
1509050315.3,286047000.3,N
1509050335.1,286046999.4,N
1509050336.0,286046999.4,N
1509050355.8,286046995.8,N
1509050375.7,286046996.4,N
1509050395.5,286046992.4,N
1509050415.3,286046989.7,N
1509050435.2,286046989.6,N
1509050455.9,286046990.5,N
1509050475.7,286046996.1,N
1509050495.6,286046997.8,N
1509050515.4,286046994.1,N
1509050535.2,286046990.4,N
1509050555.1,286046988.9,N
1509050556.0,286046988.9,N
1509050575.8,286046990.4,N
1509050595.6,286046984.1,Y
1509050615.5,286046983.8,P
1509050635.3,286046983.0,N
1509050655.1,286046982.0,N
1509050675.9,286046977.8,Y
1509050695.7,286046992.7,P
1509050715.6,286046988.7,P
1509050735.4,286046991.6,P
1509050755.2,286046989.4,Y
1509050775.1,286046997.7,P
1509050776.0,286046997.7,N
1509050795.8,286046995.8,N
1509050815.6,286046993.7,N
1509050835.5,286046993.8,N
1509050855.3,286046994.9,N
1509050875.1,286046994.6,N
1509050895.9,286046994.4,N
1509050915.7,286046990.2,Y
1509050935.5,286046995.3,P
1509050955.4,286046995.7,P
1509050975.2,286046993.3,P
1509050995.1,286046991.8,Y
1509050996.0,286046991.8,P
1509051015.8,286046997.1,N
1509051035.6,286046996.6,N
1509051055.5,286047001.2,N
1509051075.3,286046999.7,N
1509051095.1,286046999.3,N
1509051115.9,286046998.1,N
1509051135.7,286046998.4,N
1509051155.5,286046997.8,N
1509051175.4,286046999.0,N
1509051195.2,286047002.0,N
1509051215.0,286047003.2,N
1509051215.9,286047003.2,N
1509051235.8,286047003.7,N
1509051255.6,286047001.6,N
1509051275.4,286047003.7,N
1509051295.3,286047003.7,N
1509051315.1,286047001.3,N
1509051316.0,286047001.3,N
1509051335.8,286047005.1,N
1509051355.7,286047007.0,N
1509051375.5,286047007.4,N
1509051395.3,286047007.5,N
1509051415.2,286047004.5,N
1509051435.9,286047008.8,N
1509051455.7,286047009.7,N
1509051475.6,286047006.3,N
1509051495.4,286047003.8,N
1509051515.2,286047010.3,N
1509051535.1,286047013.5,Y
1509051536.0,286047013.5,P
1509051555.8,286047018.5,P
1509051575.6,286047023.7,P
1509051595.5,286047027.6,Y
